Location: Overspoor
(51.4747°N, 5.6641°E)
Time: 08:51:21
(UTC+02:00)

YUBILEINY - Pass Details

Date: 08 July 2022
Orbit: 1478 x 1509 km, 82.5° (Epoch: 07 August)

Event Time Altitude Azimuth Distance (km) Brightness Sun altitude
Rises 02:01:33 0° 345° (NNW) 4,655 ? -15.9°
Reaches altitude 10° 02:06:45 10° 10° (N) 3,664 ? -15.8°
Maximum altitude 02:10:46 14° 38° (NE) 3,377 ? -15.8°
Drops below altitude 10° 02:14:46 10° 66° (ENE) 3,648 ? -15.7°
Sets 02:19:53 0° 91° (E) 4,617 ? -15.6°
